sat.trackr.live / text

‹ back to catalog

STARLINK-34304

NORAD 64224 · 2025-117X

PAYLOAD ACTIVE UNKNOWN

§ Identity

Operator
Country
US
Launch date
2025-05-31
Launch site
AFWTR
Launch vehicle
Mass (kg)
RCS (m²)

Purposes: comms

External: N2YO · Heavens-Above · Gunter

§ Orbital elements

Epoch: 2026-09-20T06:23:07.384416Z

Period
93.85 min
Inclination
53.1581°
Eccentricity
0.0001476
Mean motion
15.34401629 rev/d
Perigee alt
461.7 km
Apogee alt
463.7 km
Semi-major
6,840.8 km
B*
4.9698e-4
RAAN
214.5764°
Arg perigee
94.5613°
Mean anomaly
265.5558°
Rev number
7,436

§ Raw data

STARLINK-343041 64224U 25117X   26263.26605769  .00016453  00000+0  49698-3 0  99912 64224  53.1581 214.5764 0001476  94.5613 265.5558 15.34401629 74369

JSON: /api/v1/satellites/64224 · /tle

For live sub-satellite position, see the globe view (requires WebGL).

§ Visibility from observer

Set your observer location to see the next 7 days of passes ≥ 10°. The values pass through the URL so the page stays shareable.

No JS? Fill the form by hand. The geolocation button needs JavaScript.